Theta_e
324 325 325 326 325 325 326 326 326 326 325 324 324 324 324 324 323 322 321 319 315 311 312 312 312 312 313 312 310 308 307 307 306 305 305 305 304 304 304 304 305 305 305
324 325 325 326 326 326 326 326 325 323 323 323 323 324 324 323 322 321 320 317 314 310 307 308 310 311 310 308 306 306 306 305 304 304 303 303 303 303 303 303 303 303 303
325 326 326 326 326 326 325 324 324 324 322 321 323 322 322 322 321 318 317 315 312 304 302 307 308 306 305 304 305 305 304 303 303 302 302 302 302 302 302 302 302 301 301
325 325 326 326 326 326 326 325 325 321 320 320 321 321 320 321 318 317 313 311 303 301 300 303 303 302 301 303 303 303 303 302 301 301 301 301 301 301 301 301 300 300 300
325 326 325 325 325 325 324 323 321 320 320 320 321 320 320 320 316 314 311 305 299 299 301 302 300 297 298 300 300 301 301 301 300 300 300 300 300 300 300 300 300 300 300
324 323 324 322 322 321 321 321 320 320 320 321 320 320 319 318 314 311 305 297 298 298 299 300 297 292 296 297 298 299 300 300 299 299 299 299 299 299 299 299 300 299 299
324 323 323 322 321 321 321 321 322 321 320 321 319 318 318 314 311 307 302 297 298 298 297 293 292 291 291 292 294 297 298 298 298 298 298 298 298 298 299 299 299 299 298
324 324 323 323 321 321 322 323 323 322 320 319 319 319 315 313 310 308 302 297 297 298 297 294 291 291 291 289 290 293 295 296 296 296 296 297 297 297 298 299 297 297 297
325 325 325 324 324 323 323 323 323 323 321 321 318 318 312 311 309 307 303 296 297 297 297 294 291 291 290 289 288 290 292 293 294 294 295 295 295 296 297 296 297 296 296
325 325 325 325 325 324 324 324 324 324 321 320 318 315 313 310 303 304 300 296 296 297 296 294 291 290 290 289 288 289 290 292 292 292 293 294 294 295 296 296 295 294 294
326 325 325 326 326 325 325 324 325 323 320 320 319 311 307 303 304 302 298 296 296 296 296 293 291 290 289 289 288 288 288 290 291 291 292 292 292 293 293 293 294 293 293
327 326 326 326 326 325 325 325 325 321 319 318 317 313 303 302 302 298 297 297 295 296 295 294 292 290 289 288 288 288 288 287 289 290 291 291 291 291 292 292 292 292 292
329 327 326 326 327 326 326 325 323 319 317 316 313 306 300 299 300 297 297 296 295 295 295 294 293 290 289 288 288 288 287 287 287 289 290 290 290 290 290 291 291 291 290
329 327 327 326 326 327 326 325 320 317 315 311 305 297 295 295 295 294 294 295 294 295 294 294 292 291 289 288 288 287 287 287 287 287 289 289 289 289 289 289 290 290 289
330 328 327 326 326 325 325 322 317 314 312 305 298 295 293 292 292 292 293 293 295 293 292 293 291 290 289 288 288 287 287 286 286 286 286 288 289 289 288 288 288 288 288
329 329 326 325 325 324 322 318 312 309 307 299 295 293 292 291 291 291 290 291 293 293 292 292 290 290 289 288 288 287 286 286 286 286 286 287 287 287 287 287 287 287 286
328 327 325 323 323 322 318 313 309 305 301 295 293 292 291 291 290 289 289 290 290 291 292 290 290 289 289 288 287 287 286 286 285 285 284 284 286 286 286 286 286 286 285
327 325 324 320 319 317 314 309 307 302 297 293 292 291 290 290 290 289 289 290 290 290 291 291 290 289 289 288 287 287 286 286 285 285 285 283 284 284 286 286 285 284 284
325 323 320 317 314 316 307 307 305 301 295 292 291 291 290 289 290 289 289 289 289 289 289 289 289 289 289 287 287 286 286 286 286 285 285 284 283 283 284 285 283 283 283
322 321 317 313 311 308 308 303 299 296 292 291 291 290 290 289 289 289 289 289 289 288 288 287 288 289 288 287 287 286 286 286 287 286 285 285 283 283 282 283 281 282 282
316 314 311 307 305 305 301 303 296 293 291 291 290 289 289 289 288 289 289 289 288 288 287 287 288 289 288 287 286 285 284 285 285 286 286 286 284 283 281 281 281 282 282
312 309 306 305 302 301 301 298 296 292 290 290 289 289 289 288 288 288 288 288 288 288 287 287 288 288 288 287 285 284 283 282 283 284 285 286 283 283 281 280 282 282 281
307 305 302 300 299 298 297 295 293 290 290 289 289 288 288 288 287 287 287 288 288 288 287 287 287 287 287 286 285 283 282 282 282 284 283 283 282 281 280 280 282 281 280
302 301 298 297 297 295 295 294 291 292 289 289 288 288 288 287 287 287 286 286 286 287 286 286 286 286 286 285 285 283 282 282 282 283 283 281 281 280 280 280 281 280 279
297 296 296 295 294 295 293 291 291 288 288 288 288 287 287 287 287 286 286 286 286 286 286 286 285 285 285 285 284 282 282 282 282 283 282 281 280 279 279 280 280 277 277
295 293 292 291 292 290 291 288 288 287 287 287 287 287 287 287 286 286 286 286 285 286 286 285 284 284 284 284 283 283 282 282 281 281 281 280 280 278 277 278 278 276 277
Wind_Speed
8 8 7 5 4 4 2 2 2 3 4 6 6 6 6 7 7 7 7 10 12 17 19 19 19 19 20 21 21 22 22 23 23 24 25 25 26 27 28 28 29 30 31
9 9 7 6 5 4 2 2 2 2 4 4 5 5 6 5 7 7 6 9 12 13 17 20 20 20 20 21 22 23 23 23 24 25 25 26 27 28 28 29 29 30 31
13 10 8 6 4 4 4 3 2 3 4 5 6 5 6 3 6 8 10 9 11 13 17 21 20 20 21 21 22 22 22 23 24 25 26 26 27 27 28 29 30 31 32
12 12 9 7 7 5 3 2 3 2 5 5 4 6 4 2 10 9 9 11 12 11 14 16 17 20 21 21 22 21 22 23 24 24 24 25 26 27 28 29 30 32 33
13 11 10 8 8 6 5 5 3 4 5 5 6 5 5 7 10 10 11 9 9 10 12 14 14 17 19 20 21 21 22 23 22 22 23 24 26 27 29 30 31 32 33
14 14 13 11 10 8 7 7 5 4 5 2 3 2 7 10 10 14 11 9 9 10 10 9 9 13 16 18 21 21 21 21 21 22 23 25 27 28 29 30 31 32 34
18 17 16 14 10 11 10 9 6 5 3 3 2 9 12 9 11 10 6 10 9 8 8 10 13 14 14 16 19 19 19 20 22 23 24 26 27 28 29 31 30 33 32
20 20 19 17 15 15 14 12 10 7 5 4 3 3 2 6 10 7 5 9 9 5 8 9 14 14 14 15 17 18 19 20 22 22 24 25 26 27 29 29 30 30 33
23 22 21 20 18 15 16 14 13 12 7 6 5 4 2 3 8 10 6 6 7 8 8 6 11 12 12 14 17 19 19 20 21 22 23 24 25 26 27 28 28 30 32
27 26 24 23 21 19 18 18 16 13 11 11 8 9 8 5 3 3 7 7 7 7 6 3 7 10 10 11 15 16 17 19 20 21 22 23 25 25 25 26 28 30 33
31 28 26 25 25 23 21 20 19 15 14 13 14 9 9 7 7 3 3 7 10 7 4 2 5 8 9 10 13 14 17 18 18 19 21 22 21 22 22 25 27 30 31
33 32 32 28 26 25 25 23 19 17 16 17 18 17 14 7 8 5 3 4 8 7 3 1 4 7 7 8 12 12 14 16 17 18 18 18 18 19 22 24 27 28 30
37 37 34 33 31 28 27 23 20 19 18 19 18 18 17 14 11 11 7 5 4 6 5 2 3 4 4 6 9 10 11 13 14 14 14 15 15 18 21 24 26 29 31
39 38 39 37 34 31 27 26 22 20 20 20 19 18 16 14 13 14 10 9 1 5 4 3 4 5 3 3 6 7 7 8 10 11 12 12 14 17 20 23 26 28 31
38 36 39 40 37 33 30 29 26 24 23 22 20 18 16 15 14 14 14 15 8 4 5 10 7 6 3 1 3 5 5 6 8 10 12 12 13 16 19 22 24 28 30
37 37 37 40 38 35 34 31 28 25 24 23 21 20 18 17 15 14 14 15 14 8 3 7 10 7 3 3 3 3 4 4 6 9 11 12 13 16 18 20 23 27 30
36 37 35 37 38 38 36 33 30 28 27 26 24 22 19 18 17 16 15 14 13 12 7 6 11 8 4 5 4 2 3 4 6 6 10 15 14 16 18 19 22 26 30
36 35 32 35 40 39 38 35 33 31 30 30 27 24 22 20 18 17 16 16 14 13 11 11 10 9 8 7 4 3 3 4 7 6 7 17 17 16 18 17 20 24 29
35 33 32 36 39 40 37 36 34 32 33 31 29 27 25 24 22 20 19 17 15 13 12 12 9 8 8 8 5 4 3 4 7 4 5 16 19 16 18 17 19 23 28
32 33 32 35 39 39 38 34 33 31 32 29 27 25 25 25 24 22 21 18 17 15 12 11 9 9 9 8 8 7 4 6 8 5 10 18 18 13 20 18 21 20 27
27 27 29 32 34 37 35 34 34 32 33 29 26 25 23 22 21 21 22 21 19 16 14 11 11 12 10 11 10 5 7 8 4 6 16 17 18 15 21 22 18 18 25
26 26 28 32 35 36 35 34 32 32 32 29 27 25 22 21 22 22 20 18 17 18 14 13 14 13 12 11 9 8 6 6 5 4 17 16 15 14 20 21 12 17 22
24 26 28 30 34 33 33 32 30 32 28 30 28 28 26 25 24 24 21 18 18 17 13 13 15 13 12 11 12 10 7 6 7 10 12 10 10 16 22 16 8 17 20
23 26 29 31 31 32 30 29 32 30 31 30 27 27 26 25 25 23 22 21 20 17 15 16 16 14 13 12 13 14 10 9 12 10 6 4 10 14 20 9 7 17 18
22 25 27 29 31 32 30 32 33 32 28 26 23 24 25 24 23 23 21 21 19 17 14 15 15 16 16 13 13 12 12 9 6 3 6 6 6 17 12 2 6 19 17
22 23 23 24 26 27 24 25 29 27 26 25 23 23 23 22 22 23 24 22 21 18 16 16 17 17 17 16 15 18 14 14 9 5 3 3 7 10 7 3 13 19 16
Wind_Direction
166 161 167 153 160 123 111 78 56 42 28 7 6 8 24 30 41 34 28 40 56 63 57 54 53 52 53 46 40 36 32 28 29 22 21 20 16 14 10 8 5 1 356
176 180 174 178 163 155 178 173 139 38 19 331 7 341 29 43 53 67 61 53 51 47 53 57 59 59 53 46 38 34 32 29 27 24 22 20 18 15 11 8 5 2 358
179 184 183 188 189 204 198 156 89 328 346 349 349 22 17 51 78 94 86 75 61 38 45 65 67 62 54 44 40 37 34 30 28 24 21 20 18 16 13 9 6 4 1
192 180 186 191 204 192 175 211 231 339 343 332 338 356 12 102 104 108 113 107 76 48 49 62 67 60 49 46 42 38 35 32 30 26 23 23 20 18 15 11 8 6 3
191 193 195 201 194 181 200 225 286 321 320 333 359 351 106 97 117 111 103 81 66 68 66 60 51 53 51 47 42 38 35 34 32 29 25 24 23 20 16 12 9 6 5
205 199 194 200 212 223 237 243 263 282 302 320 340 69 108 120 111 119 111 81 69 75 85 91 62 52 51 48 42 40 37 36 33 29 26 23 22 19 17 15 13 11 8
208 207 206 205 212 227 232 246 240 263 260 281 4 114 119 124 131 132 114 82 73 66 66 73 52 46 43 43 41 39 39 35 31 28 26 23 22 21 19 17 15 12 8
213 215 219 218 213 226 225 234 240 233 243 248 181 177 143 140 132 150 125 91 94 77 63 53 39 44 41 39 36 38 35 34 30 28 25 24 22 22 19 16 11 7 3
219 221 225 229 231 231 232 234 239 225 208 203 216 191 148 202 143 147 144 104 106 106 82 56 35 45 45 37 31 38 31 31 28 27 26 25 22 21 19 12 9 2 1
221 223 227 226 231 235 236 240 237 234 222 198 194 213 212 176 163 145 135 119 126 130 119 76 42 40 44 41 30 35 31 30 27 27 27 25 22 20 15 10 6 1 359
224 227 228 227 225 229 234 235 234 230 222 218 207 185 197 198 198 146 162 152 124 130 131 106 38 39 37 39 30 31 28 27 26 26 27 24 20 16 10 6 2 358 357
222 225 229 227 228 231 232 232 228 225 227 224 222 217 199 178 187 174 142 156 160 159 187 208 21 33 34 34 32 29 27 21 26 25 24 21 17 12 5 2 0 358 356
219 223 226 225 225 226 226 226 223 226 224 220 219 212 210 204 191 187 172 147 157 163 171 244 307 4 24 26 30 30 20 15 26 25 19 15 11 7 0 358 357 356 355
228 228 224 225 225 225 223 220 220 218 217 215 209 206 205 205 201 198 183 164 120 210 201 205 259 302 346 17 25 23 21 12 25 18 14 8 5 0 356 354 354 354 353
234 235 229 226 224 221 218 217 216 211 209 208 205 203 200 199 199 200 201 190 164 174 208 204 205 246 273 323 357 10 10 7 20 11 6 359 357 354 352 352 352 352 352
232 236 233 226 222 216 213 212 210 208 203 200 199 198 198 198 196 194 193 194 199 189 164 178 205 223 245 257 288 342 352 346 10 6 358 352 347 349 349 351 352 352 352
230 232 233 227 220 213 210 209 209 204 201 197 195 196 198 199 193 189 186 188 192 194 184 180 206 211 226 258 265 298 339 343 350 343 3 357 346 348 347 348 350 351 354
236 231 234 229 220 214 209 211 207 203 202 195 195 194 196 192 194 190 189 191 194 194 197 188 197 200 220 242 265 275 321 355 352 334 345 0 350 347 346 343 348 351 354
236 231 234 228 222 214 215 211 211 207 204 202 199 197 197 193 192 193 191 192 195 200 203 197 188 204 227 237 263 258 294 351 354 353 1 357 354 353 347 346 345 351 353
232 229 230 228 221 219 212 212 209 206 204 202 203 202 200 199 198 193 192 194 196 197 197 194 190 217 236 238 274 280 297 343 5 22 7 357 350 351 353 346 344 353 353
232 235 232 227 223 216 217 207 212 204 203 199 203 202 203 205 203 199 197 195 198 197 203 199 212 230 223 224 253 276 300 333 0 1 349 2 352 352 355 345 350 352 351
234 232 229 228 220 219 214 215 212 206 205 202 197 199 199 200 201 198 198 201 204 198 200 211 228 233 219 233 244 258 287 336 308 336 340 351 352 349 346 345 355 351 352
232 228 228 225 222 216 216 214 208 211 208 208 204 203 198 200 203 201 198 197 200 201 214 221 223 234 239 237 242 246 247 265 267 330 332 333 353 335 348 346 7 356 354
230 227 224 220 217 217 217 210 212 214 214 214 207 209 208 202 204 203 204 207 212 213 216 225 234 241 243 246 250 264 245 267 299 321 321 278 326 326 344 342 351 357 355
232 227 226 219 213 213 211 211 214 208 207 211 212 214 214 209 207 209 211 217 219 219 226 232 240 242 242 241 248 240 240 250 275 272 291 295 323 329 337 334 322 345 351
234 228 223 221 217 216 217 214 214 211 208 207 211 214 216 218 215 214 217 220 224 224 227 229 238 245 247 245 240 244 249 247 252 274 223 306 306 346 321 270 319 341 337